AirNav   Air Wisconsin Up To $57,000 Bonus
 
 1352 users online  

KTQH Tahlequah Municipal Airport
Tahlequah, Oklahoma, USA

GOING TO TAHLEQUAH?


FAA INFORMATION EFFECTIVE 16 JUNE 2022

Location

FAA Identifier: TQH
Lat/Long: 35-55-49.0000N 095-00-16.3000W
35-55.816667N 095-00.271667W
35.9302778,-95.0045278
(estimated)
Elevation: 874.1 ft. / 266.4 m (surveyed)
Variation: 05E (1995)
From city: 2 miles NW of TAHLEQUAH, OK
Time zone: UTC -5 (UTC -6 during Standard Time)
Zip code: 74464

Airport Operations

Airport use: Open to the public
Activation date: 10/1948
Control tower: no
ARTCC: MEMPHIS CENTER
FSS: MC ALESTER FLIGHT SERVICE STATION
NOTAMs facility: TQH (NOTAM-D service available)
Attendance: MON-FRI 0800-1700
Wind indicator: yes
Segmented circle: yes
Lights: ACTVT REIL RWY 17 & 35; MIRL RWY 17/35 - CTAF. PAPI RWY 17 & 35 ON CONSLY.
Beacon: white-green (lighted land airport)
Operates sunset to sunrise.

Airport Communications

CTAF/UNICOM: 122.8
WX AWOS-3P: 118.425 (918-453-2729)
  • APCH/DEP SVC PRVDD BY MEMPHIS ARTCC ON FREQS 126.1/269.0 (FAYETTEVILLE RCAG).

Airport Services

Fuel available: 100LL JET-A
Parking: hangars and tiedowns
Airframe service: MINOR
Powerplant service: MINOR

Runway Information

Runway 17/35

Dimensions: 5001 x 75 ft. / 1524 x 23 m
Surface: asphalt, in good condition
Weight bearing capacity: 
Single wheel: 26.0
Runway edge lights: medium intensity
RUNWAY 17  RUNWAY 35
Latitude: 35-56.228988N35-55.405447N
Longitude: 095-00.251395W095-00.290892W
Elevation: 869.4 ft.851.2 ft.
Traffic pattern: leftleft
Runway heading: 177 magnetic, 182 true357 magnetic, 002 true
Markings: nonprecision, in good conditionnonprecision, in good condition
Visual slope indicator: 4-light PAPI on left (3.50 degrees glide path)4-light PAPI on left (3.00 degrees glide path)
PAPI UNUSBL BYD 8 DEGS RIGHT OF CNTRLN.
Runway end identifier lights: yesyes
Touchdown point: yes, no lightsyes, no lights
Obstructions: 34 ft. trees, 719 ft. from runway, 150 ft. right of centerline, 15:1 slope to clear19 ft. trees, 240 ft. from runway, 112 ft. left of centerline, 2:1 slope to clear
18 FT TREE 185 FT FM RWY END 120 FT L OF CNTRLN.

Airport Ownership and Management from official FAA records

Ownership: Publicly-owned
Owner: CITY OF TAHLEQUAH
CITY HALL, 111 S. CHEROKEE
TAHLEQUAH, OK 74464
Phone 918-456-0561
Manager: BRIAN LAMBERT
2100 AIRPORT PARKWAY
TAHLEQUAH, OK 74464
Phone (918) 708-5600

Airport Operational Statistics

Aircraft based on the field: 36
Single engine airplanes: 31
Multi engine airplanes: 3
Jet airplanes: 2
    
Aircraft operations: avg 42/day *
56% local general aviation
44% transient general aviation
* for 12-month period ending 30 September 2021

Additional Remarks

FOR CD CTC MEMPHIS ARTCC AT 901-368-8453/8449.

Instrument Procedures

NOTE: All procedures below are presented as PDF files. If you need a reader for these files, you should download the free Adobe Reader.

NOT FOR NAVIGATION. Please procure official charts for flight.
FAA instrument procedures published for use from 16 June 2022 at 0901Z to 14 July 2022 at 0900z.

 
IAPs - Instrument Approach Procedures
RNAV (GPS) RWY 17   download (234KB)
RNAV (GPS) RWY 35   download (234KB)
NOTE: Special Alternate Minimums apply   download (122KB)
NOTE: Special Take-Off Minimums/Departure Procedures apply   download (131KB)

Other nearby airports with instrument procedures:

H68 - Hefner-Easley Airport (17 nm W)
H71 - Mid-America Industrial Airport (24 nm NW)
KMKO - Muskogee-Davis Regional Airport (24 nm SW)
KSLG - Smith Field Airport (29 nm NE)
KJSV - Sallisaw Municipal Airport (31 nm S)
 
Loc | Ops | Rwys | IFR | FBO | Links
Com | Nav | Svcs | Stats | Notes
Area around KTQH (Tahlequah Municipal Airport)
 
Road maps at: MapQuest Bing Google
 
Aerial photo
WARNING: Photo may not be current or correct
Aerial photo of KTQH (Tahlequah Municipal Airport)
Photo by Renee LaCombe
Photo taken 07-Nov-2013
looking north.

Do you have a better or more recent aerial photo of Tahlequah Municipal Airport that you would like to share? If so, please send us your photo.

 
Sectional chart

 
Airport distance calculator
Flying to Tahlequah Municipal Airport? Find the distance to fly.

From to KTQH

Sunrise and sunset
Times for 02-Jul-2022
 Local
(UTC-5)
 Zulu
(UTC)
Morning civil twilight05:3810:38
Sunrise06:0911:09
Sunset20:3901:39
Evening civil twilight21:1002:10

Current date and time
Zulu (UTC)  02-Jul-2022 21:31:03
Local (UTC-5)  02-Jul-2022 16:31:03
 
METAR
KTQH 022115Z AUTO 00000KT 10SM SCT055 37/15 A2994 RMK AO2
TAF
KXNA 
40nm NE 
021722Z 0218/0318 VRB05KT P6SM VCTS BKN040CB FM030200 VRB04KT P6SM SCT040 BKN250 PROB30 0303/0306 5SM -TSRA BKN040CB FM030900 00000KT 4SM BR SCT250 FM031300 VRB04KT P6SM SCT040 BKN250
KFYV 
41nm E 
021722Z 0218/0318 14006KT P6SM VCTS BKN040CB FM030200 VRB03KT P6SM SCT040 BKN250 FM030900 00000KT 4SM BR SCT250 FM031300 VRB04KT P6SM SCT040 BKN250
KTUL 
46nm W 
021722Z 0218/0318 16007KT P6SM SCT050 BKN250
KFSM 
47nm SE 
021722Z 0218/0318 11006KT P6SM VCTS BKN040CB FM030200 VRB04KT P6SM SCT250 FM030900 08003KT 4SM BR SCT250 FM031300 VRB04KT P6SM SCT040 BKN250
KRVS 
48nm W 
021722Z 0218/0318 16006KT P6SM SCT050 BKN250 FM030200 VRB03KT P6SM SCT080 BKN250
NOTAMs
Click for the latest NOTAMs
NOTAMs are issued by the DoD/FAA and will open in a separate window not controlled by AirNav.

 

 
 

FBO, Fuel Providers, and Aircraft Ground Support

  
 Business Name 
 
 Contact 
 
 Services / Description 
 
Fuel Prices
 
Comments
  
City of Tahlequah (FBO) 918-431-4139
no information available

If you are affiliated with City of Tahlequah (FBO) and would like to show here your services, contact info, web link, logo, and more, click here
100LL Jet A
AS $5.80 $6.20 
 Updated 24-Jun-2022
 
   1 read write
AS=Assisted/Self Service
Update Fuel Prices
 

Would you like to see your business listed on this page?

 If your business provides an interesting product or service to pilots, flight crews, aircraft, or users of the Tahlequah Municipal Airport, you should consider listing it here.  To start the listing process, click on the button below
 
Add a business
 

Other Pages about Tahlequah Municipal Airport

www.cityoftahlequah.com/...
 
Update a link
 
Copyright © AirNav, LLC. All rights reserved. Privacy Policy  Contact